Regional Weather Roundup
Issued by NWS

Home | Current Version | Previous Version | Graphics & Text | Print | Product List | Glossary On
Versions: 1 2 3 4 5 6 7 8 9 10 11 12 13 14 15 16 17 18 19 20 21 22 23 24 25 26 27 28 29 30 31 32 33 34 35 36 37 38 39 40 41 42 43 44 45 46 47 48 49 50
000
ASUS43 KIND 270009
RWRIN

WEATHER ROUNDUP FOR INDIANA
NATIONAL WEATHER SERVICE INDIANAPOLIS IN
800 PM EDT THU APR 26 2018

NOTE: "FAIR" INDICATES FEW OR NO CLOUDS BELOW 12,000 FEET WITH NO
SIGNIFICANT WEATHER AND/OR OBSTRUCTIONS TO VISIBILITY.

* - STATION DOES NOT REPORT WEATHER SUCH AS PRECIPITATION OR FOG.

+ - STATION NOT QUALITY CONTROLLED BY THE NATIONAL WEATHER SERVICE.
    USE DATA WITH CAUTION...ESPECIALLY DEWPOINT AND RELATIVE
    HUMIDITY OBSERVATIONS.

INZ001>003-010>013-019-020-270100-
NORTHWEST INDIANA

CITY           SKY/WX    TMP DP  RH WIND       PRES   REMARKS
GARY /AIRPORT/ MOCLDY    61  23  23 E6        29.86S
KNOX *+        FAIR      55  28  35 N6        29.87S
LA PORTE +     FAIR      57  27  31 E3        29.87S
6HR MIN TEMP:  57; 6HR MAX TEMP:  62;

MICHIGAN CITY+ FAIR      57  28  33 CALM      29.86S
MONTICELLO +   FAIR      64  23  21 CALM      29.85S
6HR MIN TEMP:  57; 6HR MAX TEMP:  66;

RENSSELAER +   FAIR      63  -4   7 CALM      29.86S
VALPARAISO     FAIR      59  22  24 E5        29.86F
6HR MIN TEMP:  59; 6HR MAX TEMP:  65;


$$

LMZ046-743>745-270100-
SOUTHERN LAKE MICHIGAN

STATION/POSITION TIME  TEMP    WIND        PRES    WAVE
                       AIR SEA DIR/SP/G            HT
                 (UTC) (F)     (DEG/KT/KT) (MB)    (FT)
BURNS HARBOR     2340   51      90/  3/  8 1011.5F
MICHIGAN CITY    2340   56      50/  5/  5   N/A

$$

INZ004-005-014>016-021>024-270100-
NORTH CENTRAL INDIANA

CITY           SKY/WX    TMP DP  RH WIND       PRES   REMARKS
ELKHART        FAIR      57  30  35 NW8       29.86S
GOSHEN         FAIR      59  37  44 NW13      29.85S
6HR MIN TEMP:  58; 6HR MAX TEMP:  63;

LOGANSPORT +   FAIR      61  32  33 CALM      29.86S
PERU/GRISSOM   FAIR      62  36  38 NW5       29.84F
6HR MIN TEMP:  60; 6HR MAX TEMP:  65;

ROCHESTER +    FAIR      63  32  31 CALM      29.85F
SOUTH BEND     FAIR      56  26  31 N5        29.88S
6HR MIN TEMP:  55; 6HR MAX TEMP:  63;

WARSAW +       FAIR      59  36  41 N3        29.85S

$$

INZ006>009-017-018-025>027-270100-
NORTHEAST INDIANA

CITY           SKY/WX    TMP DP  RH WIND       PRES   REMARKS
ANGOLA *+      FAIR      59  34  38 SW6       29.84S
AUBURN +       FAIR      59  36  41 CALM      29.85S
FORT WAYNE     FAIR      63  37  38 CALM      29.85F
6HR MIN TEMP:  60; 6HR MAX TEMP:  67;

HUNTINGTON +   FAIR      60  33  35 CALM      29.85S
6HR MIN TEMP:  58; 6HR MAX TEMP:  64;

KENDALLVILLE + FAIR      59  25  26 CALM      29.85F

$$

INZ028-029-035-036-043>045-051>053-270100-
WEST CENTRAL INDIANA

CITY           SKY/WX    TMP DP  RH WIND       PRES   REMARKS
CRAWFORDSVL +  FAIR      60  32  35 NW3       29.86S
6HR MIN TEMP:  57; 6HR MAX TEMP:  63;

GREENCASTLE +  FAIR      59  32  36 CALM      29.87S
LAFAYETTE      FAIR      61  30  31 NW6       29.85S
6HR MIN TEMP:  58; 6HR MAX TEMP:  65;

TERRE HAUTE    FAIR      64  30  27 N5        29.87S
6HR MIN TEMP:  62; 6HR MAX TEMP:  66;


$$

INZ030>032-037>040-046>048-054>057-064-065-270100-
CENTRAL INDIANA

CITY           SKY/WX    TMP DP  RH WIND       PRES   REMARKS
COLUMBUS       PTCLDY    66  28  24 N5        29.86S
FRANKFORT +    FAIR      64  32  29 N3        29.88S
6HR MIN TEMP:  61; 6HR MAX TEMP:  67;

GREENWOOD *+   FAIR      62  32  32 NW3       29.86S
6HR MIN TEMP:  58; 6HR MAX TEMP:  65;

INDIANAPOLIS   FAIR      60  34  37 NW8       29.85S
6HR MIN TEMP:  60; 6HR MAX TEMP:  66;

-EAGLE CREEK   FAIR      62  34  35 NW6       29.85S
6HR MIN TEMP:  60; 6HR MAX TEMP:  66;

KOKOMO +       FAIR      62  35  36 NW3       29.86S
6HR MIN TEMP:  59; 6HR MAX TEMP:  65;

MARION +       FAIR      61  33  35 CALM      29.86S
MT COMFORT *+  FAIR      61  41  48 N5        29.86S
SHELBYVILLE    FAIR      64  31  28 N3        29.85S
6HR MIN TEMP:  61; 6HR MAX TEMP:  67;

ZIONSVILLE +   FAIR      59  36  41 NW6       29.86F
6HR MIN TEMP:  56; 6HR MAX TEMP:  63;


$$

INZ033-034-041-042-049-050-058-059-270100-
EAST CENTRAL INDIANA

CITY           SKY/WX    TMP DP  RH WIND       PRES   REMARKS
MUNCIE         FAIR      63  36  36 NE3       29.85S
6HR MIN TEMP:  61; 6HR MAX TEMP:  68;

RICHMOND +     FAIR      59  34  38 NW5       29.85S

$$

INZ060-061-067>069-081>083-085>088-270100-
SOUTHWEST INDIANA

CITY           SKY/WX    TMP DP  RH WIND       PRES   REMARKS
EVANSVILLE     FAIR      65  34  31 N7        29.87S
6HR MIN TEMP:  64; 6HR MAX TEMP:  69;

HUNTINGBURG +  FAIR      61  30  31 NW6       29.86S
6HR MIN TEMP:  61; 6HR MAX TEMP:  66;

WASHINGTON +   FAIR      63  29  27 NW9       29.86S
6HR MIN TEMP:  62; 6HR MAX TEMP:  67;


$$

INZ062-063-066-070>080-084-089>092-270100-
SOUTH CENTRAL AND SOUTHEAST INDIANA

CITY           SKY/WX    TMP DP  RH WIND       PRES   REMARKS
BATESVILLE +   CLEAR     63  28  27 MISG      29.85S
BLOOMINGTON    FAIR      60  36  40 N7        29.86S
6HR MIN TEMP:  60; 6HR MAX TEMP:  67;

FRENCH LICK *+ FAIR      63  16  16 W7        29.86S
MADISON *+     FAIR      64  25  22 CALM      29.86S
NORTH VERNON + FAIR      59  32  36 N5        29.86S
SEYMOUR +      FAIR      64  36  34 NE3       29.85S

$$




USA.gov is the U.S. government's official web portal to all federal, state and local government web resources and services.